Regional Weather Roundup
Issued by NWS

Home | Current Version | Previous Version | Text Only | Print | Product List | Glossary On
Versions: 1 2 3 4 5 6 7 8 9 10 11 12 13 14 15 16 17 18 19 20 21 22 23 24 25 26 27 28 29 30 31 32 33 34 35 36 37 38 39 40 41 42 43 44 45 46 47 48 49 50
000
ASUS43 KTOP 310559
RWRKS

WEATHER ROUNDUP FOR KANSAS
NATIONAL WEATHER SERVICE GOODLAND KS
100 AM CDT THU JUL 31 2014

NOTE:  "FAIR" INDICATES FEW OR NO CLOUDS BELOW 12,000 FEET WITH NO
SIGNIFICANT WEATHER AND/OR OBSTRUCTIONS TO VISIBILITY.

KSZ001>006-013>018-027>032-041>047-310700-
NORTHWEST KANSAS

CITY           SKY/WX    TMP DP  RH WIND       PRES   REMARKS
GOODLAND       PTCLDY    59  57  93 W7        30.27R
6HR MIN TEMP:  59; 6HR MAX TEMP:  71;

HAYS           MOCLDY    61  55  82 W6        30.19R
HILL CITY      CLOUDY    63  55  75 CALM      30.19S
6HR MIN TEMP:  63; 6HR MAX TEMP:  81;

RUSSELL        MOCLDY    62  59  90 W6        30.16R
6HR MIN TEMP:  61; 6HR MAX TEMP:  79;

$$

KSZ061>065-074>080-084>089-310700-
SOUTHWEST KANSAS

CITY           SKY/WX    TMP DP  RH WIND       PRES   REMARKS
DODGE CITY     CLEAR     58  54  86 CALM      30.21R
6HR MIN TEMP:  57; 6HR MAX TEMP:  71;

ELKHART          N/A     59  57  93 W1          N/A
GARDEN CITY    PTCLDY    59  57  93 W5        30.23R
6HR MIN TEMP:  59; 6HR MAX TEMP:  69;

GREAT BEND     PTCLDY    61  55  82 W3        30.16S
LIBERAL        CLEAR     59  54  82 NW5       30.25S
$$

KSZ066>073-081>083-090>101-310700-
SOUTHEAST KANSAS

CITY           SKY/WX    TMP DP  RH WIND       PRES   REMARKS
CHANUTE        FOG       63  61  93 N3        30.11S VSB 1/4
6HR MIN TEMP:  60; 6HR MAX TEMP:  69;

COFFEYVILLE    MOCLDY    67  65  93 NE5       30.09R
6HR MIN TEMP:  67; 6HR MAX TEMP:  68; 6HR PCP:  0.05;

HUTCHINSON     FOG       57  56  96 CALM      30.14S VSB 1/2
6HR MIN TEMP:  57; 6HR MAX TEMP:  71;

NEWTON         CLEAR     63  54  72 NE6       30.16F
PARSONS        PTCLDY    66  64  93 N5        30.11R FOG
6HR MIN TEMP:  66; 6HR MAX TEMP:  70; 6HR PCP: TRACE;

WICHITA INTL   PTCLDY    65  62  90 N3        30.13S
6HR MIN TEMP:  65; 6HR MAX TEMP:  69;

WICHITA JABRA  CLEAR     64  63  96 N3        30.13R
6HR MIN TEMP:  63; 6HR MAX TEMP:  68;

WINFIELD       CLOUDY    66  65  96 N8        30.13R
6HR MIN TEMP:  66; 6HR MAX TEMP:  69; 6HR PCP:  0.01;

$$

KSZ007>012-019>026-033>040-048>060-102>105-310700-
NORTHEAST KANSAS

CITY           SKY/WX    TMP DP  RH WIND       PRES   REMARKS
CONCORDIA      PTCLDY    62  54  74 CALM      30.13F
6HR MIN TEMP:  60; 6HR MAX TEMP:  78;

EMPORIA        FOG       61  61 100 NW3       30.12S VSB 3/4
6HR MIN TEMP:  61; 6HR MAX TEMP:  72;

LAWRENCE       CLEAR     57  55  93 NW3       30.11S
6HR MIN TEMP:  57; 6HR MAX TEMP:  81;

MANHATTAN      CLEAR     60  58  92 CALM      30.13S
6HR MIN TEMP:  60; 6HR MAX TEMP:  80;

OLATHE IND     CLEAR     64  60  87 NW3       30.11S
6HR MIN TEMP:  64; 6HR MAX TEMP:  76;

OLATHE EXE     CLEAR     62  60  93 CALM      30.10S
6HR MIN TEMP:  62; 6HR MAX TEMP:  74;

SALINA         CLEAR     61  56  83 CALM      30.14S
6HR MIN TEMP:  60; 6HR MAX TEMP:  77;

TOPEKA BILLARD PTCLDY    60  58  92 CALM      30.11F
6HR MIN TEMP:  60; 6HR MAX TEMP:  80;

TOPEKA FORBES  CLEAR     61  58  90 CALM      30.11F
6HR MIN TEMP:  61; 6HR MAX TEMP:  78;

$$


USA.gov is the U.S. government's official web portal to all federal, state and local government web resources and services.